OBJECT BE, 43810

Orbit data source: Space-Track

You're viewing an uncataloged RSO

Recently launched and/or uncataloged RSOs may have evolving metadata. Metadata may include the following, but is not limited to: Owner, Manufacturer, Bus, Motor, and Mission.

OBJECT BE, 43810 is a satellite in SSO that was launched on Mon, 03 Dec 2018 UTC via an FALCON 9 launch vehicle from the Air Force Western Test Range (AFWTR). Unknown objects in Earth's orbit typically refer to objects detected orbiting the Earth but have not yet been identified or cataloged. These objects could be anything from previously untracked satellites, spent rocket stages, debris from satellite collisions, or even natural meteoroids temporarily captured by Earth's gravity.

Loading next visibility...
Identifier
43810, 2018-099BE
Orbit
SSO
Country
Flag of TBDTBD
Related business
None
Manufacturer
Unknown
Mission
Non-operational Commercial Technology
Bus & Motor
Unknown
Mass
Unknown
Launch date (UTC)
2018-12-03 (8 years ago)
Launch vehicle
FALCON 9
Launch site
Air Force Western Test Range (AFWTR)
Object type
Unknown
Shape & HBR
Box + 1 Pan, 0.2 m
Radar Cross Section
0.035 m², Medium (>0.1 m² and < 1m²)

Expand to show TLE details & history
Last TLE update: 20 hours ago

TLE from 20 hours ago
0 OBJECT BE
1 43810U 18099BE  26235.56401106  .00002567  00000-0  15708-3 0  9998
2 43810  97.3856 273.0161 0008881 107.8897 252.3303 15.11047975422186
Epoch: 2026-08-23T13:32Z
TLE epoch observation values (Epoch: 2026-08-23T13:32:10.555Z)
Latitude
0.00002°
Longitude
98.11386°
Altitude
537.95 km
Speed
7.592 km/s
True Right ascension
18h 12m 03s
True Declination
0° 00' 00"
Sunlit
Object was in full shadow at epoch
Visualization orbit readout
Latitude
Unknown
Longitude
Unknown
Altitude
Unknown
Speed
Unknown
Apparent Right ascension
Unknown
Apparent Declination
Unknown
Sunlit
N/A
Visualization observer readout
Local Sidereal Time
00:48:44
Azimuth
Unknown
Elevation
Unknown
Doppler factor
Unknown
Orbital elements
Apogee altitude
536.115 km
Perigee altitude
523.845 km
Semi-major axis
6,908.117 km
Eccentricity
0.00089
Inclination
97.3856°
RAAN
273.0161°
Arg. of periapsis
107.8897°
True anomaly
252.23337°
Mean anomaly
252.3303°
Eccentric anomaly
252.28183°
Mean motion
3.7801 °/min
Orbital period
95.24 mins
BSTAR
0.00015708
Loading maneuver chart data...
Computing Atmospheric mass density...
Loading historical data...
Loading historical data...
Loading historical data...
Loading historical data...
Loading historical data...
Loading historical data...
Loading historical data...

Documentation

Showing up to 5 results
|